Weather History for KTDR - February, 2014

Change the Weather History Date:

Wednesday, February 19, 2014

  Actual Average (KECP) Record (KECP)
Temperature  
Mean Temperature 63 °F -  
Max Temperature 72 °F - 78 °F (2011)
Min Temperature 53 °F - 25 °F (2015)
Degree Days  
Heating Degree Days 2    
Cooling Degree Days 0    
Growing Degree Days 13 (Base 50)    
Moisture  
Dew Point 61 °F    
Average Humidity 95    
Maximum Humidity 100    
Minimum Humidity 65    
Precipitation  
Precipitation 0.01 in - 0.46 in (2013)
Month to date precipitation  
Year to date precipitation  
Sea Level Pressure  
Sea Level Pressure 30.10 in    
Wind  
Wind Speed 8 mph (SSE)    
Max Wind Speed 38 mph    
Max Gust Speed 47 mph    
Visibility 7 miles    
Events Fog    
T = Trace of Precipitation, MM = Missing Value Source: NWS Daily Summary

Daily Weather History Graph

Daily Weather History Graph

Search for Another Location

Airport or City:

Trip Planner

Search our weather history database for the weather conditions in past years. The results will help you decide how hot, cold, wet, or windy it might be!

Date:

Astronomy

Feb. 19, 2014 Rise Set
Actual Time 6:18 AM CST 5:33 PM CST
Civil Twilight 5:54 AM CST 5:58 PM CST
Nautical Twilight 5:26 AM CST 6:26 PM CST
Astronomical Twilight 4:58 AM CST 6:54 PM CST
Moon 10:02 PM CST (2/19) 8:45 AM CST (2/19)
Length of Visible Light 12h 04m
Length of Day
11h 15m
Waning Gibbous, 79% of the Moon is Illuminated
Feb 19
Waning Gibbous
Feb 22
Last Quarter
Mar 1
New
Mar 8
First Quarter
Mar 16
Full

Hourly Weather History & Observations

Time (CST) Temp. Dew Point Humidity Pressure Visibility Wind Dir Wind Speed Gust Speed Precip Events Conditions
12:55 AM 60.3 °F 59.4 °F 97% 30.09 in 10.0 mi South 10.4 mph - N/A   Partly Cloudy
12:56 AM 60.3 °F 59.4 °F 97% 30.10 in 12.0 mi South 10.4 mph - N/A   Partly Cloudy
1:55 AM 60.8 °F 60.3 °F 98% 30.09 in 10.0 mi South 4.6 mph - N/A   Mostly Cloudy
1:56 AM 60.8 °F 60.3 °F 98% 30.10 in 12.0 mi South 4.6 mph - N/A   Mostly Cloudy
2:54 AM 57.2 °F 55.4 °F 94% 30.10 in 3.0 mi NE 3.5 mph - N/A   Partly Cloudy
2:55 AM 56.3 °F 55.9 °F 99% 30.10 in 2.5 mi NE 3.5 mph - N/A   Partly Cloudy
2:56 AM 56.3 °F 55.9 °F 99% 30.12 in 2.8 mi NE 3.5 mph - N/A   Partly Cloudy
3:07 AM 57.2 °F 57.2 °F 100% 30.11 in 1.8 mi NNE 3.5 mph - N/A   Partly Cloudy
3:13 AM 57.2 °F 57.2 °F 100% 30.10 in 0.8 mi NE 4.6 mph - N/A   Partly Cloudy
3:24 AM 55.4 °F 55.4 °F 100% 30.10 in 0.3 mi ENE 1.2 mph - N/A Fog Patches of Fog
3:46 AM 55.4 °F 55.4 °F 100% 30.11 in 0.2 mi South 1.2 mph - N/A Fog Fog
3:55 AM 55.0 °F 55.0 °F 100% 30.11 in 0.2 mi SE 1.2 mph - N/A Fog Fog
3:56 AM 55.0 °F 55.0 °F 100% 30.12 in 0.1 mi SE 1.2 mph - N/A Fog Fog
4:04 AM 53.6 °F 53.6 °F 100% 30.10 in 0.2 mi SE 2.3 mph - N/A Fog Fog
4:14 AM - - N/A% 30.10 in 0.2 mi West 2.3 mph - N/A Fog Fog
4:26 AM 55.4 °F 55.4 °F 100% 30.10 in 0.5 mi SSE 1.2 mph - N/A Fog Fog
4:30 AM 55.4 °F 55.4 °F 100% 30.10 in 1.0 mi South 2.3 mph - N/A   Overcast
4:32 AM 55.4 °F 55.4 °F 100% 30.10 in 1.1 mi South 2.3 mph - N/A   Overcast
4:34 AM 55.4 °F 55.4 °F 100% 30.10 in 1.0 mi SE 3.5 mph - N/A   Overcast
4:38 AM 55.4 °F 55.4 °F 100% 30.10 in 1.1 mi South 2.3 mph - N/A   Overcast
4:42 AM 55.4 °F 55.4 °F 100% 30.10 in 2.5 mi South 2.3 mph - N/A   Overcast
4:44 AM 55.4 °F 55.4 °F 100% 30.10 in 5.0 mi South 2.3 mph - N/A   Overcast
4:53 AM 55.4 °F 55.4 °F 100% 30.10 in 1.9 mi South 2.3 mph - N/A   Mostly Cloudy
4:55 AM 55.8 °F 56.1 °F 100% 30.10 in 1.2 mi SSW 2.3 mph - 0.01 in   Mostly Cloudy
4:56 AM 55.6 °F 56.1 °F 100% 30.12 in 1.5 mi South 1.2 mph - 0.01 in   Mostly Cloudy
5:01 AM 57.2 °F 57.2 °F 100% 30.10 in 1.0 mi WSW 1.2 mph - N/A   Mostly Cloudy
5:05 AM 57.2 °F 57.2 °F 100% 30.10 in 0.8 mi SW 2.3 mph - N/A   Mostly Cloudy
5:55 AM 58.5 °F 58.6 °F 100% 30.11 in 0.2 mi South 6.9 mph - N/A Fog Fog
5:56 AM 58.5 °F 58.6 °F 100% 30.12 in 0.1 mi South 6.9 mph - N/A Fog Fog
6:16 AM 60.8 °F 60.8 °F 100% 30.11 in 0.1 mi South 5.8 mph - N/A Fog Fog
6:55 AM 59.0 °F 59.4 °F 100% 30.12 in 0.2 mi South 4.6 mph - N/A Fog Fog
6:56 AM 59.0 °F 59.4 °F 100% 30.13 in 0.1 mi South 5.8 mph - N/A Fog Fog
7:38 AM - - N/A% 30.13 in 12.0 mi SSE 6.9 mph - N/A   Scattered Clouds
7:55 AM 62.2 °F 62.1 °F 99% 30.14 in 10.0 mi SSE 6.9 mph - N/A   Mostly Cloudy
7:56 AM 62.2 °F 62.1 °F 99% 30.14 in 12.0 mi SSE 8.1 mph - N/A   Scattered Clouds
7:58 AM - - N/A% - 12.0 mi SSE 6.9 mph - N/A   Mostly Cloudy
8:04 AM 62.6 °F 62.6 °F 100% 30.14 in 12.0 mi SE 5.8 mph - N/A   Mostly Cloudy
8:40 AM 64.4 °F 64.4 °F 100% 30.15 in 12.0 mi South 6.9 mph 47.2 mph N/A   Scattered Clouds
8:55 AM 64.0 °F 64.0 °F 100% 30.15 in 10.0 mi East 20.7 mph 40.3 mph N/A   Partly Cloudy
8:56 AM 64.0 °F 64.0 °F 100% 30.16 in 12.0 mi East 20.7 mph 40.3 mph N/A   Partly Cloudy
9:04 AM 64.4 °F 64.4 °F 100% 30.15 in 12.0 mi NNE 32.2 mph - N/A   Clear
9:11 AM 64.4 °F 64.4 °F 100% 30.15 in 12.0 mi ESE 23.0 mph - N/A   Clear
9:13 AM 64.4 °F 62.6 °F 94% 30.16 in 12.0 mi ESE 35.7 mph - N/A   Clear
9:14 AM 64.4 °F 64.4 °F 100% 30.16 in 12.0 mi ESE 24.2 mph 46.0 mph N/A   Squalls
9:15 AM 66.2 °F 64.4 °F 94% 30.16 in 12.0 mi NNE 38.0 mph 43.7 mph N/A   Clear
9:18 AM 66.2 °F 62.6 °F 88% 30.16 in 12.0 mi ESE 21.9 mph 44.9 mph N/A   Clear
9:47 AM 68.0 °F 62.6 °F 83% 30.15 in 12.0 mi West 20.7 mph - N/A   Clear
9:55 AM 69.3 °F 61.7 °F 77% 30.15 in 10.0 mi North - - N/A   Clear
10:55 AM 71.4 °F 60.8 °F 69% 30.14 in 10.0 mi SSW 8.1 mph 16.1 mph N/A   Clear
11:36 AM 73.4 °F 60.8 °F 65% 30.13 in 12.0 mi NW 36.8 mph - N/A   Clear
11:41 AM 73.4 °F 60.8 °F 65% 30.12 in 12.0 mi West 18.4 mph - N/A   Clear
11:55 AM 72.9 °F 62.8 °F 71% 30.12 in 10.0 mi South 11.5 mph - N/A   Clear
11:56 AM 72.9 °F 62.2 °F 69% 30.12 in 12.0 mi South 12.7 mph - N/A   Clear
12:55 PM 71.8 °F 62.8 °F 73% 30.09 in 10.0 mi South 13.8 mph - N/A   Clear
12:56 PM 71.6 °F 62.6 °F 73% 30.10 in 12.0 mi South 13.8 mph - N/A   Clear
1:55 PM 72.0 °F 64.0 °F 76% 30.07 in 10.0 mi South 12.7 mph - N/A   Clear
1:56 PM 72.0 °F 64.0 °F 76% 30.08 in 12.0 mi South 11.5 mph - N/A   Clear
2:55 PM 70.7 °F 64.2 °F 80% 30.06 in 10.0 mi South 12.7 mph - N/A   Clear
2:56 PM 70.7 °F 64.2 °F 80% 30.07 in 12.0 mi South 12.7 mph - N/A   Clear
3:55 PM 69.1 °F 64.4 °F 85% 30.06 in 10.0 mi South 10.4 mph - N/A   Clear
3:56 PM 69.1 °F 64.2 °F 84% 30.06 in 12.0 mi South 11.5 mph - N/A   Clear
4:55 PM 66.9 °F 64.2 °F 91% 30.06 in 10.0 mi South 9.2 mph - N/A   Clear
4:56 PM 66.9 °F 64.2 °F 91% 30.07 in 12.0 mi South 8.1 mph - N/A   Clear
5:55 PM 64.6 °F 63.7 °F 97% 30.06 in 10.0 mi SSE 11.5 mph - N/A   Scattered Clouds
5:56 PM 64.6 °F 63.7 °F 97% 30.07 in 12.0 mi SSE 11.5 mph - N/A   Scattered Clouds
6:34 PM 64.4 °F 64.4 °F 100% 30.05 in 12.0 mi SSE 10.4 mph - N/A   Mostly Cloudy
6:40 PM 64.4 °F 64.4 °F 100% 30.05 in 12.0 mi SSE 9.2 mph - N/A   Mostly Cloudy
6:55 PM 64.2 °F 63.5 °F 98% 30.06 in 10.0 mi SSE 10.4 mph - N/A   Mostly Cloudy
6:56 PM 64.2 °F 63.5 °F 98% 30.07 in 12.0 mi SSE 10.4 mph - N/A   Mostly Cloudy
7:03 PM 64.4 °F 62.6 °F 94% 30.06 in 12.0 mi SSE 8.1 mph - N/A   Scattered Clouds
7:55 PM 63.5 °F 63.0 °F 98% 30.07 in 10.0 mi SSE 8.1 mph - N/A   Scattered Clouds
7:56 PM 63.5 °F 63.0 °F 98% 30.08 in 12.0 mi SSE 8.1 mph - N/A   Scattered Clouds
8:48 PM 62.6 °F 62.6 °F 100% 30.08 in 12.0 mi SSE 5.8 mph - N/A   Mostly Cloudy
8:55 PM 63.0 °F 62.4 °F 98% 30.08 in 10.0 mi SSE 5.8 mph - N/A   Mostly Cloudy
8:56 PM 63.0 °F 62.4 °F 98% 30.09 in 12.0 mi SSE 6.9 mph - N/A   Mostly Cloudy
9:55 PM 62.1 °F 61.9 °F 99% 30.07 in 9.0 mi SE 3.5 mph - N/A   Mostly Cloudy
9:56 PM 62.1 °F 61.9 °F 99% 30.08 in 9.0 mi SE 3.5 mph - N/A   Mostly Cloudy
10:21 PM 60.8 °F 60.8 °F 100% 30.07 in 4.0 mi SSE 3.5 mph - N/A   Mostly Cloudy
10:25 PM 60.8 °F 60.8 °F 100% 30.07 in 2.5 mi SSE 3.5 mph - N/A   Mostly Cloudy
10:31 PM - - N/A% 30.07 in 4.0 mi SSE 3.5 mph - N/A   Mostly Cloudy
10:34 PM 60.8 °F 60.8 °F 100% 30.07 in 7.0 mi SSE 3.5 mph - N/A   Mostly Cloudy
10:38 PM 60.8 °F 60.8 °F 100% 30.08 in 4.0 mi SSE 3.5 mph - N/A   Mostly Cloudy
10:44 PM 60.8 °F 60.8 °F 100% 30.07 in 1.8 mi SSE 3.5 mph - N/A   Mostly Cloudy
10:48 PM 60.8 °F 60.8 °F 100% 30.07 in 1.8 mi SSE 3.5 mph - N/A   Mostly Cloudy
10:54 PM 60.8 °F 60.8 °F 100% 30.07 in 2.2 mi SSE 2.3 mph - N/A   Mostly Cloudy
10:55 PM 61.0 °F 61.3 °F 100% 30.07 in 2.5 mi SSE 3.5 mph - N/A   Mostly Cloudy
10:56 PM 61.0 °F 61.3 °F 100% 30.08 in 2.5 mi SSE 3.5 mph - N/A   Mostly Cloudy
10:59 PM 60.8 °F 60.8 °F 100% 30.07 in 4.0 mi SSE 2.3 mph - N/A   Mostly Cloudy
11:11 PM - - N/A% 30.07 in 5.0 mi SE 3.5 mph - N/A   Mostly Cloudy
11:55 PM 62.8 °F 62.8 °F 100% 30.06 in 6.0 mi SE 4.6 mph - N/A   Overcast
11:56 PM 62.8 °F 62.8 °F 100% 30.06 in 6.0 mi SE 4.6 mph - N/A   Overcast